STARLINK-3277, 50182

Orbit data source: Space-Track

STARLINK-3277, 50182 is a payload satellite owned by SpaceX/Seattle (US) in LEO that was launched on Sat, 18 Dec 2021 UTC via an FALCON 9 launch vehicle from the Air Force Western Test Range (AFWTR). Payload-class satellites include a variety of spacecraft equipped with specific instruments for various scientific and technological missions. These include communications satellites like Starlink; space stations such as the ISS; scientific satellites like the Hubble; Earth observation satellites from companies like Planet Labs, Umbra, and HawkEye 360; GPS; miniature CubeSats for education and research; and military/defense satellites.

Loading next visibility...
Identifier
50182, 2021-125AC
Orbit
LEO
Country
Flag of USUS
Related business
Manufacturer
SpaceX/Seattle
Mission
Operational Commercial Communications
Bus & Motor
STARLINK, Unknown motor
Mass
290 kg wet, ~270 kg dry
Launch date (UTC)
2021-12-18 (5 years ago)
Launch vehicle
FALCON 9
Launch site
Air Force Western Test Range (AFWTR)
Object type
Payload
Rocket body
Debris
Shape & HBR
Box + 1 Pan, 10.1 m
Radar Cross Section
13.562 m², Large (>1 m²)

Expand to show TLE details & history
Last TLE update: 5 hours ago

TLE from 5 hours ago
0 STARLINK-3277
1 50182U 21125AC  26170.16668980  .00047889  00000-0  21019-2 0  9998
2 50182  53.1608 152.9662 0001016  40.5158 349.6712 15.21505467  5837
Epoch: 2026-06-19T04:00Z
TLE epoch observation values (Epoch: 2026-06-19T04:00:01.998Z)
Latitude
23.79071°
Longitude
-155.2667°
Altitude
501.449 km
Speed
7.617 km/s
True Right ascension
11h 28m 33s
True Declination
23° 39' 34"
Sunlit
Object was in daylight at epoch
Visualization orbit readout
Latitude
Unknown
Longitude
Unknown
Altitude
Unknown
Speed
Unknown
Apparent Right ascension
Unknown
Apparent Declination
Unknown
Sunlit
N/A
Visualization observer readout
Local Sidereal Time
20:16:27
Azimuth
Unknown
Elevation
Unknown
Doppler factor
Unknown
Orbital elements
Apogee altitude
502.253 km
Perigee altitude
500.855 km
Semi-major axis
6,879.691 km
Eccentricity
0.0001
Inclination
53.1608°
RAAN
152.9662°
Arg. of periapsis
40.5158°
True anomaly
349.66911°
Mean anomaly
349.6712°
Eccentric anomaly
349.67016°
Mean motion
3.80356 °/min
Orbital period
94.65 mins
BSTAR
0.0021019
Loading maneuver chart data...
Computing Atmospheric mass density...

Documentation

Showing up to 5 results
|